,

(GMT )
Banff

Weather History for CWZG - August, 2013

Change the Weather History Date:

Wednesday, August 21, 2013

  Actual Average Record
Temperature  
Mean Temperature 54 °F -  
Max Temperature 71 °F - - ()
Min Temperature 37 °F - - ()
Degree Days  
Heating Degree Days 11    
Growing Degree Days 4 (Base 50)    
Moisture  
Dew Point 27 °F    
Average Humidity 40    
Maximum Humidity 70    
Minimum Humidity 15    
Precipitation  
Precipitation 0.00 in - - ()
Sea Level Pressure  
Sea Level Pressure 30.16 in    
Wind  
Wind Speed 4 mph ()    
Max Wind Speed 9 mph    
Max Gust Speed 17 mph    
T = Trace of Precipitation, MM = Missing Value Source: Averaged Metar Reports

Daily Weather History Graph

Daily Weather History Graph

Search for Another Location

Airport or City:

Trip Planner

Search our weather history database for the weather conditions in past years. The results will help you decide how hot, cold, wet, or windy it might be!

Date:

Astronomy

Aug. 21, 2013 Rise Set
Actual Time 6:38 AM MDT 8:50 PM MDT
Civil Twilight 6:02 AM MDT 9:26 PM MDT
Nautical Twilight 5:17 AM MDT 10:11 PM MDT
Astronomical Twilight 4:24 AM MDT 11:03 PM MDT
Moon 8:46 PM MDT (8/21) 7:35 AM MDT (8/21)
Length of Visible Light 15h 24m
Length of Day
14h 12m
Full, 99% of the Moon is Illuminated
Aug 21
Full
Aug 28
Last Quarter
Sep 5
New
Sep 12
First Quarter
Sep 19
Full

Hourly Weather History & Observations

Time (MDT) Temp. Windchill Dew Point Humidity Pressure Visibility Wind Dir Wind Speed Gust Speed Precip Events Conditions
12:00 AM 50.5 °F - 29.1 °F 44% 30.11 in - SW 4.6 mph - N/A   Unknown
1:00 AM 47.7 °F - 30.0 °F 50% 30.13 in - WSW 2.3 mph - N/A   Unknown
2:00 AM 47.1 °F - 28.9 °F 49% 30.14 in - WSW 4.6 mph - N/A   Unknown
3:00 AM 45.9 °F 44.6 °F 28.4 °F 51% 30.16 in - West 3.5 mph - N/A   Unknown
4:00 AM 40.3 °F - 28.2 °F 62% 30.19 in - North 1.2 mph - N/A   Unknown
5:00 AM 37.0 °F - 28.0 °F 70% 30.20 in - ESE 1.2 mph - N/A   Unknown
6:00 AM 38.8 °F 36.5 °F 28.9 °F 68% 30.22 in - SW 3.5 mph - N/A   Unknown
7:00 AM 38.3 °F 35.9 °F 28.6 °F 68% 30.24 in - SW 3.5 mph - N/A   Unknown
8:00 AM 40.6 °F 37.5 °F 28.2 °F 61% 30.25 in - WSW 4.6 mph - N/A   Unknown
9:00 AM 44.8 °F 43.3 °F 29.1 °F 54% 30.25 in - SSW 3.5 mph - N/A   Unknown
10:00 AM 50.5 °F - 30.0 °F 45% 30.22 in - SSW 5.8 mph - N/A   Unknown
11:00 AM 57.2 °F - 25.9 °F 30% 30.20 in - SW 4.6 mph - N/A   Unknown
12:00 PM 63.1 °F - 27.0 °F 25% 30.18 in - SW 5.8 mph - N/A   Unknown
1:00 PM 65.1 °F - 25.5 °F 22% 30.16 in - SSW 6.9 mph - N/A   Unknown
2:00 PM 68.2 °F - 23.9 °F 19% 30.12 in - WSW 5.8 mph - N/A   Unknown
3:00 PM 69.6 °F - 22.8 °F 17% 30.13 in - SW 6.9 mph - N/A   Unknown
4:00 PM 71.6 °F - 24.8 °F 17% 30.11 in - WSW 6.9 mph - N/A   Unknown
5:00 PM 71.6 °F - 21.0 °F 15% 30.10 in - WSW 8.1 mph - N/A   Unknown
6:00 PM 70.9 °F - 20.1 °F 15% 30.09 in - SW 9.2 mph 17.3 mph N/A   Unknown
7:00 PM 70.3 °F - 21.2 °F 16% 30.09 in - SW 8.1 mph - N/A   Unknown
8:00 PM 64.8 °F - 25.2 °F 22% 30.09 in - WSW 3.5 mph - N/A   Unknown
9:00 PM 56.3 °F - 28.2 °F 34% 30.11 in - South 2.3 mph - N/A   Unknown
10:00 PM 49.8 °F - 30.4 °F 47% 30.13 in - NNW 1.2 mph - N/A   Unknown
11:00 PM 47.1 °F - 30.2 °F 52% 30.14 in - NNE 1.2 mph - N/A   Unknown